User: anonymous   Login
Location: Fort Wayne
(41.1310°N, 85.1290°W)
Time: 19:49:10
(UTC-05:00)
Language:

MetOp-A - Orbit

View from above orbital plane
View from above orbital plane
View from above satellite
View from above satellite

Ground track
Ground track

The orbit data is extracted from the following two-line orbital elements,

1 29499U 06044A   14326.52497014  .00000161  00000-0  93792-4 0  5195
2 29499 098.7055 024.0832 0001739 082.2472 053.5216 14.21484375419929
Epoch (UTC): 22 November 2014 12:35:57
Eccentricity: 0.0001739
inclination: 98.7055°
perigee height: 819 km
apogee height: 821 km
right ascension of ascending node: 24.0832°
argument of perigee: 82.2472°
revolutions per day: 14.21484375
mean anomaly at epoch: 53.5216°
orbit number at epoch: 41992

The dashed part of the orbit path shows where the satellite is in the earth's shadow,  

DLR